Regional Weather Roundup
Issued by NWS

Home | Current Version | Previous Version | Text Only | Print | Product List | Glossary On
Versions: 1 2 3 4 5 6 7 8 9 10 11 12 13 14 15 16 17 18 19 20 21 22 23 24 25 26 27 28 29 30 31 32 33 34 35 36 37 38 39 40 41 42 43 44 45 46 47 48 49 50
000
ASUS43 KDTX 231710
RWRMI
MICHIGAN HOURLY REGIONAL WEATHER ROUNDUP
NATIONAL WEATHER SERVICE DETROIT/PONTIAC MI
ISSUED BY NATIONAL WEATHER SERVICE GRAND RAPIDS MI
1200 PM EST THU FEB 23 2017

NOTE: "FAIR" INDICATES FEW OR NO CLOUDS BELOW 12,000 FEET WITH NO
SIGNIFICANT WEATHER AND/OR OBSTRUCTION TO VISIBILITY.

MIZ047>049-052>055-059>063-066>070-074>076-081>083-231800-
SOUTHEAST LOWER MICHIGAN

CITY           SKY/WX    TMP DP  RH WIND       PRES   REMARKS
ADRIAN         MOSUNNY   61  49  64 NW9       29.76R
ALMA           CLOUDY    48  40  72 W9        29.78R
ANN ARBOR      SUNNY     62  45  53 W10       29.73R
BAD AXE        MOSUNNY   50  40  70 W13G20    29.73R
DETROIT CITY   MOSUNNY   64  47  53 W8        29.72R
DETROIT        PTSUNNY   64  47  53 W10       29.73R
FLINT          MOSUNNY   57  45  64 W12       29.74R
GROSSE ILE     MOSUNNY   64  49  59 W12       29.72R
HILLSDALE      SUNNY     61  46  59 W9        29.75R
HOWELL         MOSUNNY   59  42  53 NW8       29.73S

CITY           SKY/WX    TMP DP  RH WIND       PRES   REMARKS
JACKSON        SUNNY     60  43  53 W8        29.75R
LANSING        MOSUNNY   54  42  64 NW12      29.77R
MASON          SUNNY     57  45  63 NW12      29.75S
MONROE         SUNNY     64  50  60 W15G21    29.73R
MT. CLEMENS    MOSUNNY   64  47  53 NW15      29.71R
PONTIAC        MOSUNNY   60  42  51 NW14G22   29.72R
PORT HOPE        N/A     48  39  71 W13G24    29.71R
PORT HURON     MOSUNNY   61  45  55 W10G16    29.71R
TRI CITIES     MOSUNNY   51  41  68 W14       29.76R
YPSILANTI      MOSUNNY   65  47  52 W15       29.74R
$$
MIZ043>046-050>051-056>058-064>065-071>073-077>080-231800-
SOUTHWEST LOWER MICHIGAN

CITY           SKY/WX    TMP DP  RH WIND       PRES   REMARKS
BATTLE CREEK   MOSUNNY   53  44  71 W10       29.79R
BENTON HARBOR  CLOUDY    43  38  82 VRB6      29.81S
BIG RAPIDS     CLOUDY    45  37  72 N8        29.77R
COLDWATER      SUNNY     58  46  63 W6        29.77R
HOLLAND        CLOUDY    44  39  82 SW5       29.79F
GRAND RAPIDS   PTSUNNY   48  39  71 N7        29.78S
KALAMAZOO      CLOUDY    50  41  71 NW9       29.80R
MARSHALL       SUNNY     59  45  59 W7        29.77R
MOUNT PLEASANT PTSUNNY   48  37  66 W8        29.76R
MUSKEGON       PTSUNNY   47  38  71 NW6       29.79S
STURGIS        SUNNY     56  46  69 W7        29.77R
$$
MIZ016>042-231800-
NORTHERN LOWER MICHIGAN

CITY           SKY/WX    TMP DP  RH WIND       PRES   REMARKS
ALPENA         CLOUDY    42  37  82 NW12G21   29.72R
BEAVER ISLAND  LGT RAIN  36  34  93 N9G18     29.81S WCI  29
BELLAIRE       CLOUDY    37  34  90 CALM      29.81R
CADILLAC       CLOUDY    38  33  81 N10G18    29.77R WCI  32
CHARLEVOIX     CLOUDY    37  36  94 N10       29.82S WCI  30
GAYLORD        CLOUDY    36  32  85 NW8G20    29.75R WCI  30
HOUGHTON LAKE  CLOUDY    40  33  76 NW13      29.76R WCI  32
MANISTEE       CLOUDY    38  33  82 NW10      29.83R WCI  31
OSCODA         CLOUDY    52  38  58 NW13G21   29.70R
PELLSTON       CLOUDY    37  33  85 NW15      29.78S WCI  28
TRAVERSE CITY  CLOUDY    38  34  85 N9        29.81R WCI  31
LUDINGTON      CLOUDY    38  34  83 N9G18     29.84R WCI  32
$$
MIZ007>008-015-231800-
EASTERN UPPER MICHIGAN

CITY           SKY/WX    TMP DP  RH WIND       PRES   REMARKS
KINROSS        CLOUDY    35  31  85 NW15G24   29.77R WCI  25
MACKINAC ISLAN CLOUDY    35  35 100 NW10G16   29.77S WCI  27
NEWBERRY       CLOUDY    33  29  85 NW10G18   29.81R WCI  25
S. S. MARIE    CLOUDY    39  32  76 NW9       29.76R WCI  33
$$
MIZ004>006-011>014-085-231800-
CENTRAL UPPER MICHIGAN

CITY           SKY/WX    TMP DP  RH WIND       PRES   REMARKS
MANISTIQUE     CLOUDY    35  29  79 NW17G25   29.81F WCI  25
ESCANABA       CLOUDY    36  25  64 N10G22    29.86R WCI  28
MENOMINEE      CLOUDY    37  27  67 NW9       29.89R WCI  30
SAWYER-GWINN   CLOUDY    30  25  80 N14       29.85R WCI  20
$$
MIZ001>003-009>011-084-231800-
WESTERN UPPER MICHIGAN

CITY           SKY/WX    TMP DP  RH WIND       PRES   REMARKS
IRON MOUNTAIN  CLOUDY    33  24  69 N12       29.85R WCI  24
HOUGHTON       CLOUDY    33  20  58 W13       29.86R WCI  24
COPPER HARBOR    N/A     34  26  72 NE8       29.86R WCI  27
IRONWOOD       CLOUDY    31  25  78 NW10      29.91R WCI  22
$$

ABBREVIATIONS USED IN REMARKS
   TC - TEMPERATURE IN CELSIUS
  WCI - WIND CHILL INDEX
   HX - HEAT INDEX
  VSB - VISIBILITY




USA.gov is the U.S. government's official web portal to all federal, state and local government web resources and services.